Location: Newark
(36.0797°N, 3.9744°E)
Time: 06:18:13
(UTC+00:00)

Vanguard 2 Rocket - Pass Details

Date: 15 December 2019
Orbit: 554 x 3326 km, 32.9° (Epoch: 26 January)

Event Time Altitude Azimuth Distance (km) Brightness Sun altitude
Rises 22:00:27 0° 279° (W) 5,028 11.0 -65.1°
Enters shadow 22:03:26 - 273° (W) 4,042 10.5 -65.7°
Reaches altitude 10° 22:05:04 10° 268° (W) 3,510 - -66.0°
Maximum altitude 22:11:22 24° 219° (SW) 1,960 - -67.1°
Drops below altitude 10° 22:15:43 10° 166° (SSE) 2,337 - -67.9°
Sets 22:18:08 0° 150° (SSE) 3,043 - -68.3°
